Seattle, WA
on Thursday, November 22, 2012

Thursday
Previous Day Next Day
Daily Summary
 ActualAverageRecord
Temperature
Mean Temperature °F 44°F  
Max Temperature 48°F 49°F 58°F (1954)
Min Temperature 37°F 39°F 14°F (1985)
Degree Days
Heating Degree Days 22 21  
Month to date heating degree days 377 411  
Since 1 July heating degree days 870 1008  
Cooling Degree Days 0 0  
Month to date cooling degree days 0 0  
Year to date cooling degree days 177 189  
Moisture
Dew Point 35°F   
Average Humidity 77    
Maximum Humidity 92    
Minimum Humidity 61    
Precipitation
Precipitation T in 0.22 in 1.76 in (2011)
Month to date precipitation 5.45 4.80  
Year to date precipitation 38.58 30.37  
Snow
Snow 0.00 in in 2.50 in (2010)
Month to date snowfall 0.0  
Since 1 July snowfall 0.0  
Snow Depth 0.00 in   
Wind
Wind Speed 3 mph   
Max Wind Speed 10 mph   
Max Gust Speed 13 mph   
Visibility 10 miles   
Events Rain   

Key: T is trace of precipitation, MM is missing value
Source: NWS Daily Summary
Time(PST)TemperatureDew PointHumidity Pressure Visibility Wind DirectionWind SpeedGust SpeedPrecipitationEvents Conditions
12:53 AM 37.9°F 35.1°F 89% 30.33 in 10.0 miles SSE 5.8 mph - N/A   Partly Cloudy
1:53 AM 37.9°F 34.0°F 86% 30.34 in 10.0 miles SE 5.8 mph - N/A   Partly Cloudy
2:53 AM 39.0°F 34.0°F 82% 30.35 in 10.0 miles ESE 4.6 mph - N/A   Partly Cloudy
3:53 AM 39.9°F 34.0°F 79% 30.37 in 10.0 miles SE 4.6 mph - N/A   Partly Cloudy
4:53 AM 37.9°F 33.1°F 83% 30.38 in 10.0 miles SSE 4.6 mph - N/A   Mostly Cloudy
5:01 AM 37.4°F 32.0°F 81% 30.35 in 10.0 miles SSE 5.8 mph - N/A   Mostly Cloudy
5:53 AM 37.0°F 32.0°F 82% 30.39 in 10.0 miles SSE 5.8 mph - N/A   Mostly Cloudy
6:53 AM 39.9°F 33.1°F 77% 30.38 in 10.0 miles ESE 9.2 mph - N/A   Mostly Cloudy
7:53 AM 37.9°F 32.0°F 79% 30.38 in 10.0 miles Calm Calm - N/A   Mostly Cloudy
8:53 AM 41.0°F 34.0°F 76% 30.38 in 10.0 miles Calm Calm - N/A   Overcast
9:53 AM 42.1°F 33.1°F 70% 30.38 in 10.0 miles Calm Calm - N/A   Overcast
10:53 AM 42.1°F 34.0°F 73% 30.38 in 10.0 miles ESE 4.6 mph - N/A   Overcast
11:53 AM 44.1°F 34.0°F 68% 30.36 in 10.0 miles Calm Calm - N/A   Overcast
12:53 PM 46.9°F 35.1°F 63% 30.33 in 10.0 miles ESE 6.9 mph - N/A   Overcast
1:53 PM 48.0°F 36.0°F 63% 30.32 in 10.0 miles Calm Calm - N/A   Overcast
2:53 PM 45.0°F 37.0°F 74% 30.33 in 10.0 miles SSW 3.5 mph - N/A   Overcast
3:53 PM 46.0°F 37.9°F 73% 30.32 in 10.0 miles Calm Calm - N/A   Overcast
4:53 PM 45.0°F 37.9°F 76% 30.31 in 10.0 miles Calm Calm - N/A   Overcast
5:53 PM 46.9°F 35.1°F 63% 30.28 in 10.0 miles ESE 10.4 mph - N/A   Overcast
6:53 PM 45.0°F 37.0°F 74% 30.27 in 10.0 miles Calm Calm - N/A   Mostly Cloudy
7:53 PM 44.1°F 37.9°F 79% 30.25 in 10.0 miles Calm Calm - N/A   Mostly Cloudy
8:53 PM 46.0°F 35.1°F 66% 30.23 in 10.0 miles SSE 5.8 mph - N/A   Mostly Cloudy
9:53 PM 45.0°F 39.0°F 80% 30.26 in 10.0 miles SSW 3.5 mph - N/A   Overcast
10:53 PM 45.0°F 39.0°F 80% 30.25 in 10.0 miles Calm Calm - N/A   Overcast
11:53 PM 44.1°F 39.0°F 82% 30.26 in 10.0 miles South 5.8 mph - 0.00 in Rain Light Rain
Moon Phase
Nov. 22 Nov. 28 Dec. 06 Dec. 13 Dec. 20
Sunrise:07:24 AM (PST) Moon Rise:01:32 PM (PST)11/22
Sunset:04:25 PM (PST) Moon Set:01:29 AM (PST)11/22

Copyright © 2014 The Weather Underground, Inc.